Showing default

FLOCK 4G 24, 62637

Orbit data source: Space-Track

FLOCK 4G 24, 62637 is a payload satellite owned by Planet (US) in SSO that was launched on Tue, 14 Jan 2025 UTC via an FALCON 9 launch vehicle from the Air Force Western Test Range (AFWTR). Payload-class satellites include a variety of spacecraft equipped with specific instruments for various scientific and technological missions. These include communications satellites like Starlink; space stations such as the ISS; scientific satellites like the Hubble; Earth observation satellites from companies like Planet Labs, Umbra, and HawkEye 360; GPS; miniature CubeSats for education and research; and military/defense satellites.

Loading next visibility...
Identifier
62637, 2025-009AE
Orbit
SSO
Country
Flag of USUS
Related business
Manufacturer
Planet
Mission
Partially operational Commercial Imaging
Bus & Motor
CUBESAT 3U, Unknown motor
Mass
5.7 kg wet, 5.7 kg dry
Launch date (UTC)
2025-01-14 (1 year ago)
Launch vehicle
FALCON 9
Launch site
Air Force Western Test Range (AFWTR)
Object type
Payload
Rocket body
Debris
Shape & HBR
Box + 2 Pan, 1.0 m
Radar Cross Section
0.072 m², Medium (>0.1 m² and < 1m²)

Expand to show TLE details & history
Last TLE update: 6 hours ago

TLE from 6 hours ago
0 FLOCK 4G 24
1 62637U 25009AE  26095.50723933  .00014702  00000-0  53202-3 0  9993
2 62637  97.4034 178.1339 0003537 165.0336 195.1009 15.28512505 67829
Epoch: 2026-04-05T12:10Z
TLE epoch observation values (Epoch: 2026-04-05T12:10:25.478Z)
Latitude
-0.00001°
Longitude
161.71607°
Altitude
485.703 km
Speed
7.621 km/s
True Right ascension
11h 52m 32s
True Declination
0° 00' 00"
Sunlit
Object was in full shadow at epoch
Visualization orbit readout
Latitude
Unknown
Longitude
Unknown
Altitude
Unknown
Speed
Unknown
Apparent Right ascension
Unknown
Apparent Declination
Unknown
Sunlit
N/A
Visualization observer readout
Local Sidereal Time
23:39:01
Azimuth
Unknown
Elevation
Unknown
Doppler factor
Unknown
Orbital elements
Apogee altitude
479.637 km
Perigee altitude
474.788 km
Semi-major axis
6,855.35 km
Eccentricity
0.00035
Inclination
97.4034°
RAAN
178.1339°
Arg. of periapsis
165.0336°
True anomaly
195.09035°
Mean anomaly
195.1009°
Eccentric anomaly
195.09562°
Mean motion
3.82383 °/min
Orbital period
94.15 mins
BSTAR
0.00053202
Loading maneuver chart data...
Computing Atmospheric mass density...
Loading historical data...
Loading historical data...
Loading historical data...
Loading historical data...
Loading historical data...
Loading historical data...
Loading historical data...

Documentation

Showing up to 5 results
|